Location: ?
(35.6144°N, 139.6873°E)
Time: 19:13:21
(UTC+00:00)

Cosmos 1743 - Pass Details

Date: 23 May 2024
Orbit: 474 x 488 km, 82.5° (Epoch: 22 June)

Event Time Altitude Azimuth Distance (km) Brightness Sun altitude
Rises 11:05:36 0° 5° (N) 2,530 6.7 -14.5°
Reaches altitude 10° 11:07:52 10° 16° (NNE) 1,647 5.6 -14.8°
Maximum altitude 11:11:04 30° 79° (E) 883 3.5 -15.3°
Enters shadow 11:11:42 28° 100° (E) 925 3.5 -15.4°
